Preview of NWS' New Version of Forecast
This preview is not operational and should not be used for support decisions.

Regional Weather Roundup (RWR)

Issued by Gray - Portland, ME (GYX)

                            
512 
ASUS41 KGYX 261810
RWRGYX
WEATHER ROUNDUP FOR MAINE AND NEW HAMPSHIRE
NATIONAL WEATHER SERVICE GRAY ME
200 PM EDT SAT MAY 26 2018

MEZ002-005-006-010-012-015-018-020-021-024-026-027-029-261900-
MAINE
  
CITY           SKY/WX    TMP DP  RH WIND       PRES   REMARKS
PORTLAND       CLOUDY    69  62  78 SE3       29.76S                  
6HR MIN TEMP:  68; 6HR MAX TEMP:  72; 6HR PCP: TRACE;                

SANFORD        FAIR      80  60  50 W6        29.76S                  
BAR HARBOR     PTSUNNY   75  62  64 VRB5      29.73S                  
WISCASSET      CLOUDY    68  66  93 W3        29.77S                  
6HR MIN TEMP:  65; 6HR MAX TEMP:  69; 6HR PCP:  0.11;                

ROCKLAND       PTSUNNY   70  65  84 NW6       29.74S                  
FRYEBURG       PTSUNNY   73  62  68 N8        29.80R                  
6HR MIN TEMP:  66; 6HR MAX TEMP:  76; 6HR PCP: TRACE;                

LEWISTONAUBURN PTSUNNY   69  65  86 VRB3      29.76S                  
AUGUSTA        PTSUNNY   69  64  84 CALM      29.75S                  
6HR MIN TEMP:  65; 6HR MAX TEMP:  70; 6HR PCP:  0.10;                

WATERVILLE     PTSUNNY   73  64  73 VRB3      29.73R HAZE             
BANGOR         CLOUDY    74  59  59 NW13      29.74R                  
6HR MIN TEMP:  68; 6HR MAX TEMP:  75;                                

GREENVILLE       N/A     65  45  48 N12G21    29.79R                  
6HR MIN TEMP:  63; 6HR MAX TEMP:  66;                                

MILLINOCKET    PTSUNNY   72  45  37 N9        29.78R                  
6HR MIN TEMP:  65; 6HR MAX TEMP:  73;                                

HOULTON        FAIR      67  42  40 N14G23    29.77R                  
6HR MIN TEMP:  59; 6HR MAX TEMP:  68;                                

PRESQUE ISLE   FAIR      64  33  31 N17G26    29.81R                  
6HR MIN TEMP:  55; 6HR MAX TEMP:  65;                                

FRENCHVILLE    FAIR      63  30  28 N15G29    29.83R                  
6HR MIN TEMP:  55; 6HR MAX TEMP:  63;                                

CARIBOU        FAIR      65  35  33 NW14G26   29.80R                  
6HR MIN TEMP:  53; 6HR MAX TEMP:  66;                                

$$

NHZ002-005-008-009-011-012-014-261900-
NEW HAMPSHIRE
  
CITY           SKY/WX    TMP DP  RH WIND       PRES   REMARKS
PORTSMOUTH     CLOUDY    83  57  39 W6        29.73F                  
ROCHESTER      FAIR      81  60  48 VRB5      29.74F                  
6HR MIN TEMP:  72; 6HR MAX TEMP:  82;                                

NASHUA         FAIR      88  59  37 VRB7      29.75S                  
MANCHESTER     CLOUDY    89  55  31 NW8       29.73S                  
6HR MIN TEMP:  76; 6HR MAX TEMP:  90;                                

CONCORD        FAIR      81  58  45 SE5       29.75F                  
6HR MIN TEMP:  71; 6HR MAX TEMP:  81;                                

LACONIA        FAIR      78  59  51 NE7       29.77S                  
PLYMOUTH       PTSUNNY   77  58  51 W7        29.77R                  
BERLIN         RAIN      65  63  93 NW3       29.82R FOG              
6HR MIN TEMP:  63; 6HR MAX TEMP:  68; 6HR PCP:  0.24;                

WHITEFIELD     LGT RAIN  66  64  93 SW3       29.83R FOG              
6HR MIN TEMP:  64; 6HR MAX TEMP:  70; 6HR PCP:  0.11;                

JAFFREY        FAIR      84  55  36 SW7       29.80S                  
6HR MIN TEMP:  71; 6HR MAX TEMP:  84;                                

KEENE          FAIR      86  59  39 SW12      29.76F                  
LEBANON        FAIR      83  59  44 NE10      29.75S                  
6HR MIN TEMP:  67; 6HR MAX TEMP:  84;                                

MT WASHINGTON  SHOWER    46  46 100 W33         N/A  VSB 0            
6HR MIN TEMP:  45; 6HR MAX TEMP:  49; 6HR PCP:  0.20;                

$$

VTZ005-007-008-261900-
VERMONT
  
CITY           SKY/WX    TMP DP  RH WIND       PRES   REMARKS
ST JOHNSBURY     N/A     67  65  93 MISG      29.80R                  
MONTPELIER     CLOUDY    69  60  73 N7        29.86R                  
BURLINGTON     CLOUDY    68  61  78 N10       29.82R                  
$$

MAZ007-012-024-CTZ003-RIZ002-NYZ038-NYZ072-261900-
SOUTHERN NEW ENGLAND AND NY
  
CITY           SKY/WX    TMP DP  RH WIND       PRES   REMARKS
BOSTON         CLOUDY    87  55  33 W12       29.75S                  
WORCESTER      FAIR      82  58  43 W13       29.80S                  
NANTUCKET      CLOUDY    61  59  93 SW16G23   29.81F FOG              
PROVIDENCE     PTSUNNY   85  66  53 S9        29.76F                  
HARTFORD       PTSUNNY   91  50  24 W9        29.76F                  
ALBANY         PTSUNNY   88  57  34 W7        29.77F                  
NEW YORK CITY  PTSUNNY   91  63  39 SW13G18   29.78F HX  92           
$$

ANZ081-ANZ082-ANZ150-NHZ014-MEZ023>029-261900-
COASTAL MARINE OBSERVATIONS
  
STATION/POSITION TIME  TEMP    WIND        PRES    WAVE
                       AIR SEA DIR/SP/G            HT/PER
                 (UTC) (F)     (DEG/KT/KT) (MB)    (FT/S)
MOUNT DESERT ROC 1800   57     270/ 12/ 14 1007.0R
MATINICUS ROCK   1800   57     250/ 13/ 14 1007.3R
ISLE OF SHOALS   1800   69     130/  8/  9 1006.8F
JEFFREYS LEDGE   1736      57                N/A     2/ 6
$$

.............KEY..............
   WCI - WIND CHILL
   TC  - TEMPERATURE IN CELSIUS
   VSB - VISIBILITY IN MILES
   HX  - HEAT INDEX
   FAIR- INDICATES FEW OR NO CLOUDS BELOW 12,000 FT, WITH NO 
         SIGNIFICANT WEATHER AND/OR OBSTRUCTIONS TO VISIBILITY.